Newport News, VA

3:50 PM EST on December 06, 2016 (GMT -0500)
Newport News-Williamsburg International

Weather History for KPHF - May, 2014

Change the Weather History Date:

Friday, May 30, 2014

  Actual Average Record
Temperature  
Mean Temperature 64 °F -  
Max Temperature 71 °F 79 °F 94 °F (1969)
Min Temperature 57 °F 60 °F 42 °F (1956)
Degree Days  
Heating Degree Days 2    
Growing Degree Days 14 (Base 50)    
Moisture  
Dew Point 60 °F    
Average Humidity 81    
Maximum Humidity 88    
Minimum Humidity 68    
Precipitation  
Precipitation 0.01 in - - ()
Sea Level Pressure  
Sea Level Pressure 30.11 in    
Wind  
Wind Speed 3 mph (East)    
Max Wind Speed 8 mph    
Max Gust Speed -    
Visibility 7 miles    
Events Rain    
Averages and records for this station are not official NWS values.
T = Trace of Precipitation, MM = Missing Value Source: NWS Daily Summary

Daily Weather History Graph

Daily Weather History Graph

Search for Another Location

Airport or City:

Trip Planner

Search our weather history database for the weather conditions in past years. The results will help you decide how hot, cold, wet, or windy it might be!

Date:

Astronomy

May. 30, 2014 Rise Set
Actual Time 5:48 AM EDT 8:19 PM EDT
Civil Twilight 5:18 AM EDT 8:49 PM EDT
Nautical Twilight 4:40 AM EDT 9:26 PM EDT
Astronomical Twilight 3:59 AM EDT 10:08 PM EDT
Moon 7:29 AM EDT (5/30) 9:55 PM EDT (5/30)
Length of Visible Light 15h 31m
Length of Day
14h 30m
Waxing Crescent, 4% of the Moon is Illuminated
May 30
Waxing Crescent
Jun 5
First Quarter
Jun 13
Full
Jun 19
Last Quarter
Jun 27
New

Hourly Weather History & Observations

Time (EDT) Temp. Dew Point Humidity Pressure Visibility Wind Dir Wind Speed Gust Speed Precip Events Conditions
12:14 AM 66.0 °F 60.1 °F 81% 30.12 in 10.0 mi Calm Calm - N/A   Overcast
12:54 AM 64.9 °F 60.1 °F 84% 30.13 in 9.0 mi Calm Calm - N/A   Overcast
1:35 AM 66.0 °F 60.1 °F 81% 30.11 in 10.0 mi East 3.5 mph - N/A   Overcast
1:54 AM 66.0 °F 60.1 °F 81% 30.11 in 10.0 mi ESE 3.5 mph - N/A   Overcast
2:15 AM 66.0 °F 60.1 °F 81% 30.10 in 10.0 mi East 3.5 mph - N/A   Overcast
2:54 AM 66.0 °F 60.1 °F 81% 30.09 in 10.0 mi ESE 3.5 mph - N/A   Overcast
3:54 AM 66.0 °F 60.1 °F 81% 30.08 in 10.0 mi East 3.5 mph - N/A   Overcast
4:54 AM 66.2 °F 60.8 °F 83% 30.08 in 10.0 mi Calm Calm - N/A   Overcast
5:54 AM 66.0 °F 60.1 °F 81% 30.09 in 9.0 mi NE 3.5 mph - N/A   Overcast
6:21 AM 64.9 °F 60.1 °F 84% 30.09 in 7.0 mi East 4.6 mph - 0.00 in   Overcast
6:49 AM 64.4 °F 60.8 °F 88% 30.10 in 2.5 mi East 4.6 mph - 0.00 in   Haze
6:54 AM 64.9 °F 60.1 °F 84% 30.10 in 2.0 mi East 3.5 mph - 0.00 in   Haze
7:05 AM 64.9 °F 61.0 °F 87% 30.10 in 1.2 mi ESE 4.6 mph - 0.00 in Rain Light Rain
7:30 AM 64.9 °F 61.0 °F 87% 30.09 in 1.5 mi East 4.6 mph - 0.00 in Rain Light Rain
7:39 AM 64.9 °F 61.0 °F 87% 30.09 in 1.5 mi Calm Calm - 0.00 in Rain Light Rain
7:49 AM 66.2 °F 60.8 °F 83% 30.09 in 3.0 mi East 4.6 mph - 0.00 in   Haze
7:50 AM 66.0 °F 61.0 °F 84% 30.09 in 3.0 mi East 4.6 mph - 0.00 in   Haze
8:10 AM 66.0 °F 61.0 °F 84% 30.08 in 10.0 mi ESE 4.6 mph - N/A   Overcast
8:46 AM 66.9 °F 61.0 °F 81% 30.09 in 10.0 mi East 4.6 mph - N/A   Overcast
8:54 AM 66.9 °F 61.0 °F 81% 30.09 in 10.0 mi East 6.9 mph - N/A   Overcast
9:23 AM 66.0 °F 61.0 °F 84% 30.10 in 6.0 mi ENE 5.8 mph - N/A   Overcast
9:44 AM 66.0 °F 61.0 °F 84% 30.11 in 6.0 mi ENE 5.8 mph - 0.00 in Rain Light Rain
9:54 AM 66.9 °F 61.0 °F 81% 30.12 in 1.8 mi NE 5.8 mph - 0.00 in Rain Light Rain
10:01 AM 66.0 °F 61.0 °F 84% 30.12 in 1.8 mi East 8.1 mph - 0.01 in Rain Light Rain
10:12 AM 66.0 °F 61.0 °F 84% 30.12 in 1.5 mi East 8.1 mph - 0.01 in Rain Light Rain
10:39 AM 66.9 °F 62.1 °F 84% 30.13 in 2.5 mi NE 5.8 mph - 0.01 in   Haze
10:44 AM 66.9 °F 61.0 °F 81% 30.13 in 3.0 mi ENE 6.9 mph - 0.01 in   Haze
10:54 AM 66.9 °F 61.0 °F 81% 30.13 in 4.0 mi ENE 8.1 mph - 0.01 in   Haze
11:08 AM 66.9 °F 61.0 °F 81% 30.13 in 2.5 mi East 6.9 mph - 0.00 in Rain Light Rain
11:27 AM 66.0 °F 61.0 °F 84% 30.13 in 4.0 mi ENE 8.1 mph - 0.00 in   Haze
11:51 AM 66.2 °F 60.8 °F 83% 30.14 in 9.0 mi ENE 6.9 mph - 0.00 in   Overcast
11:54 AM 66.0 °F 60.1 °F 81% 30.14 in 9.0 mi ENE 6.9 mph - 0.00 in   Overcast
12:54 PM 68.0 °F 60.1 °F 76% 30.13 in 10.0 mi Variable 4.6 mph - N/A   Overcast
1:08 PM 68.0 °F 60.1 °F 76% 30.13 in 10.0 mi East 4.6 mph - N/A   Overcast
1:54 PM 68.0 °F 60.8 °F 78% 30.13 in 7.0 mi ENE 6.9 mph - N/A   Overcast
2:01 PM 68.0 °F 61.0 °F 78% 30.13 in 4.0 mi ENE 5.8 mph - 0.00 in Rain Light Rain
2:11 PM 68.0 °F 61.0 °F 78% 30.13 in 7.0 mi ENE 6.9 mph - 0.00 in   Overcast
2:54 PM 68.0 °F 61.0 °F 78% 30.12 in 10.0 mi ENE 6.9 mph - 0.00 in   Overcast
3:54 PM 69.1 °F 60.1 °F 73% 30.12 in 10.0 mi ENE 4.6 mph - N/A   Overcast
4:44 PM 69.1 °F 60.1 °F 73% 30.11 in 10.0 mi East 4.6 mph - N/A   Overcast
4:54 PM 69.8 °F 60.8 °F 73% 30.11 in 10.0 mi East 3.5 mph - N/A   Overcast
5:23 PM 70.0 °F 60.1 °F 71% 30.11 in 10.0 mi Calm Calm - N/A   Overcast
5:32 PM 70.0 °F 60.1 °F 71% 30.11 in 10.0 mi East 3.5 mph - N/A   Overcast
5:54 PM 69.8 °F 60.8 °F 73% 30.10 in 10.0 mi ENE 3.5 mph - N/A   Overcast
6:15 PM 70.0 °F 59.0 °F 68% 30.10 in 10.0 mi NE 3.5 mph - N/A   Overcast
6:54 PM 69.1 °F 59.0 °F 70% 30.10 in 10.0 mi ENE 5.8 mph - N/A   Overcast
7:29 PM 68.0 °F 57.9 °F 70% 30.11 in 10.0 mi ENE 4.6 mph - N/A   Mostly Cloudy
7:54 PM 66.9 °F 59.0 °F 76% 30.11 in 10.0 mi East 3.5 mph - 0.00 in   Mostly Cloudy
8:54 PM 63.0 °F 57.9 °F 84% 30.11 in 10.0 mi Calm Calm - N/A   Clear
9:54 PM 61.0 °F 55.9 °F 83% 30.12 in 10.0 mi Calm Calm - N/A   Clear
10:54 PM 60.1 °F 55.9 °F 86% 30.13 in 6.0 mi Calm Calm - N/A   Clear
11:26 PM 57.9 °F 54.0 °F 87% 30.13 in 1.5 mi Calm Calm - N/A   Clear
11:36 PM 59.0 °F 55.0 °F 87% 30.13 in 3.0 mi Calm Calm - N/A   Clear
11:54 PM 60.1 °F 55.9 °F 86% 30.12 in 8.0 mi Calm Calm - N/A   Clear